Preview of NWS' New Version of Forecast
This preview is not operational and should not be used for support decisions.
Latest weather observations around

Demopolis Municipal Airport (KDYA)

Using International System of Units (Switch to English Units)
Date/ Time (CST) Wind (kph) Vis. (km) Weather Sky Cond. Temp (°C) Rel. Humidity Wind Chill (°C) Heat Index (°C) Pressure Precip. (cm)
Air Dwpt 6 hour Altimeter (hPa) Sea level (hPa) 1 hr 3 hr 6 hr
Max Min
Feb 22 06:15 SSE 5 11.27 Clear   21 18     87%     1027.1        
Feb 22 05:55 Calm 16.09 Clear   21 18     87%     1026.8        
Feb 22 05:35 Calm 16.09 Clear   21 18     87%     1026.8        
Feb 22 05:15 SSE 5 11.27 Clear   21 19     86%     1026.8        
Feb 22 04:55 SSE 9 11.27 Clear   21 19     86%     1026.4        
Feb 22 04:35 SE 5 11.27 Clear   21 19     86%     1026.4        
Feb 22 04:15 SE 8 11.27 Clear   21 19     86%     1026.1        
Feb 22 03:55 SSE 5 11.27 Clear   21 19     85%   22 1026.1        
Feb 22 03:35 SE 9 16.09 Clear   21 19     85%   22 1026.1        
Feb 22 03:15 SSE 8 11.27 Clear   21 19     84%   22 1026.1        
Feb 22 02:55 S 8 16.09 Clear   21 19     85%   22 1026.1        
Feb 22 02:35 SSE 5 11.27 Clear   21 19     85%   22 1025.7        
Feb 22 02:15 SSE 9 16.09 Clear   21 19     85%   22 1025.7        
Feb 22 01:55 SSE 9 16.09 Clear   21 19     86%     1025.7        
Feb 22 01:35 SE 9 16.09 Clear   21 18     85%     1025.7        
Feb 22 01:15 SSE 13 16.09 Clear   21 18     84%   22 1025.7        
Feb 22 00:55 SSE 11 16.09 Clear   21 18     84%   22 1025.7        
Feb 22 00:35 SSE 13 16.09 Clear   21 18     83%   22 1025.7        
Feb 22 00:15 SSE 17 16.09 Clear   22 19     83%   22 1025.7        
Feb 21 23:55 SSE 15 16.09 Clear   22 19     82%   22 1025.7        
Feb 21 23:35 SSE 13 16.09 Clear   22 19     81%   22 1025.7        
Feb 21 23:15 SSE 18 16.09 Clear   22 19     81%   22 1025.7        
Feb 21 22:55 SE 18 16.09 Clear   22 19     81%   22 1025.7        
Feb 21 22:35 SSE 18 16.09 Clear   22 19     81%   22 1025.7        
Feb 21 22:15 SSE 18 16.09 Clear   22 18     81%   22 1025.4        
Feb 21 21:55 SSE 17 16.09 Clear   22 18     78%   23 1025.4        
Feb 21 21:35 SE 15 11.27 Clear   22 18     78%   23 1025.4        
Feb 21 21:15 SSE 18 11.27 Clear   22 18     76%   23 1025.1        
Feb 21 20:55 SE 13 11.27 Clear   23 18     75%   23 1025.1        
Feb 21 20:35 SE 11 11.27 Clear   23 18     73%   23 1025.1        
Feb 21 20:15 SSE 9 16.09 Clear   23 18     71%   23 1024.7        
Feb 21 19:55 SSE 11 16.09 Clear   24 17     69%   24 1024.7        
Feb 21 19:35 SSE 11 16.09 Clear   24 17     66%   24 1024.7        
Feb 21 19:15 SSE 9 16.09 Clear   24 17     65%   24 1024.4        
Feb 21 18:55 SSE 15 16.09 Clear   24 17     63%   25 1024.1        
Feb 21 18:35 SSE 15 16.09 Clear   25 17     61%   25 1023.7        
Feb 21 18:15 SSE 17 11.27 Clear   25 17     60%   25 1023.4        
Feb 21 17:55 SSE 17 16.09 Clear   25 17     59%   25 1023.4        
Feb 21 17:35 SSE 13 16.09 Clear   26 16     56%   26 1023        
Feb 21 17:15 SSE 9 11.27 Clear   26 17     56%   27 1023        
Feb 21 16:55 SSE 13 16.09 Clear   27 17     54%   28 1022.7        
Feb 21 16:35 SSE 18 16.09 Clear   28 17     52%   28 1022.7        
Feb 21 16:15 SE 24 16.09 Clear   28 17     51%   28 1022.7        
Feb 21 15:55 SSE 26 11.27 Clear   28 16     49%   28 1022.7        
Feb 21 15:35 SE 24 16.09 Clear   29 17     48%   29 1022.7        
Feb 21 15:15 SSE 17 16.09 Clear   28 16     50%   28 1022.7        
Feb 21 14:55 SSE 18 16.09 Clear   28 16     49%   29 1022.7        
Feb 21 14:35 SSE 18 16.09 Clear   27 17     54%   28 1023        
Feb 21 14:15 SSE 15 16.09 Clear   27 17     56%   28 1023        
Feb 21 13:55 SSE 18 16.09 Clear   28 17     53%   28 1023.4        
Feb 21 13:35 SSE 17 11.27 Clear   26 17     58%   27 1023.7        
Feb 21 13:15 SSE 11 11.27 Clear   26 18     59%   27 1024.1        
Feb 21 12:55 SE 11 11.27 Clear   27 18     57%   28 1024.4        
Feb 21 12:35 S 9 16.09 Clear   26 18     60%   27 1024.7        
Feb 21 12:15 S 13 11.27 Clear   26 18     63%   26 1025.4        
Feb 21 11:55 S 15 11.27 Clear   25 18     66%   25 1025.4        
Feb 21 11:35 S 13 16.09 Clear   25 18     67%   25 1026.1        
Feb 21 11:15 S 11 16.09 Clear   24 18     67%   25 1026.1        
Feb 21 10:55 S 8 11.27 Clear   25 18     69%   25 1026.8        
Feb 21 10:35 SSE 17 16.09 Clear   24 18     70%   24 1026.8        
Feb 21 10:15 S 11 16.09 Clear   24 18     70%   24 1026.8        
Feb 21 09:55 SSE 15 16.09 Clear   24 19     72%   24 1027.1        
Feb 21 09:35 SE 26 16.09 Clear   24 19     73%   24 1026.8        
Feb 21 09:15 SSE 15 16.09 Clear   23 19     77%   23 1026.8        
Feb 21 08:55 SE 15 16.09 Clear   22 19     81%   23 1026.8        
Feb 21 08:35 SSE 13 16.09 Clear   22 19     84%   23 1026.4        
Feb 21 08:15 SE 15 16.09 Clear   21 19     89%   22 1026.4        
Feb 21 07:55 SE 13 16.09 Clear   21 19     92%     1026.1        
Feb 21 07:35 SE 9 16.09 Clear   21 20     96%     1026.1        
Feb 21 07:15 SE 8 16.09 Clear   20 20     100%     1025.7        
Feb 21 06:55 SE 5 11.27 Clear   20 20     100%     1025.7        
Feb 21 06:35 ESE 5 11.27 Clear   20 20     100%     1025.4        
Feb 21 06:15 ESE 5 11.27 Clear   20 20     100%     1025.4        
Feb 21 05:55 ESE 8 11.27 Clear   20 20     100%     1025.1        
Feb 21 05:35 SE 5 11.27 Clear   20 20     100%     1025.1        
Feb 21 05:15 SSE 5 11.27 Clear   19 19     100%     1024.7        
Feb 21 04:55 SE 8 11.27 Clear   19 19     100%     1024.7        
Feb 21 04:35 SE 5 11.27 Clear   20 20     100%     1024.7        
Feb 21 04:15 Calm 11.27 Clear   20 20     99%     1024.7        
Feb 21 03:55 Calm 16.09 Clear   20 20     99%     1024.7        
Feb 21 03:35 Calm 16.09 Clear   20 20     100%     1024.4        
Feb 21 03:15 ESE 5 11.27 Clear   20 20     99%     1024.4        
Feb 21 02:55 Calm 16.09 Clear   20 20     97%     1024.7        
Feb 21 02:35 SSE 5 16.09 Clear   20 20     97%     1024.7        
Feb 21 02:15 SSE 5 16.09 Clear   20 20     98%     1024.7        
Feb 21 01:55 SE 5 16.09 Clear   20 20     97%     1024.7        
Feb 21 01:35 SSE 8 16.09 Clear   20 20     97%     1024.7        
Feb 21 01:15 SSE 9 16.09 Clear   20 20     98%     1025.1        
Feb 21 00:55 SE 9 16.09 Clear   20 20     99%     1024.7        
Feb 21 00:35 SSE 11 16.09 Light Rain   21 21     100%     1024.7        
Feb 21 00:15 SE 9 16.09 Clear   20 20     97%     1024.4        
Feb 20 23:55 SSE 5 16.09 Clear   20 19     94%     1024.7        
Feb 20 23:35 S 5 16.09 Clear   20 19     92%     1024.4        
Feb 20 23:15 SSE 11 6.44 Rain   21 19     91%     1024.4        
Feb 20 22:55 SSE 11 16.09 Light Rain   21 19     89%     1024.4        
Feb 20 22:35 SSE 9 16.09 Clear   21 19     86%     1024.4        
Feb 20 22:15 SSE 11 16.09 Clear   21 19     87%     1024.4        
Feb 20 21:55 SE 13 16.09 Clear   21 19     86%   22 1024.1        
Feb 20 21:35 SE 13 16.09 Light Rain   22 18     80%   22 1024.1        
Feb 20 21:15 SE 11 16.09 Clear   23 18     73%   23 1023.7        
Feb 20 20:55 SSE 9 16.09 Clear   23 17     72%   23 1023.4        
Feb 20 20:35 SSE 18 16.09 Clear   23 17     71%   23 1023.4        
Feb 20 20:15 SSE 15 11.27 Clear   23 17     72%   23 1023        
Feb 20 19:55 SSE 13 16.09 Clear   23 17     71%   23 1023        
Feb 20 19:35 SE 11 16.09 Clear   23 17     69%   23 1022.7        
Feb 20 19:15 SE 9 16.09 Clear   23 17     69%   23 1022.7        
Feb 20 18:55 SSE 11 16.09 Clear   23 17     67%   24 1022.4        
Feb 20 18:35 SSE 18 16.09 Clear   24 17     65%   24 1022.4        
Feb 20 18:15 SSE 11 16.09 Clear   24 17     65%   24 1022.4        
Feb 20 17:55 SSE 18 11.27 Clear   25 16     59%   25 1022.4        
Feb 20 17:35 SSE 13 11.27 Clear   25 16     57%   25 1022        
Feb 20 17:15 SSE 17 16.09 Clear   26 16     53%   26 1022        
Feb 20 16:55 SSE 11 11.27 Clear   26 15     51%   26 1022        
Feb 20 16:35 SSE 8 16.09 Clear   26 16     51%   27 1021.7        
Feb 20 16:15 S 13 16.09 Clear   27 15     50%   27 1021.7        
Feb 20 15:55 S 18 16.09 Clear   27 15     49%   27 1021.3        
Feb 20 15:35 S 17 16.09 Clear   27 15     48%   28 1021.3        
Feb 20 15:15 SSE 18 16.09 Clear   27 15     48%   27 1021.3        
Feb 20 14:55 S 18 16.09 Clear   27 15     48%   27 1021.7        
Feb 20 14:35 S 17 11.27 Clear   27 15     47%   28 1021.7        
Feb 20 14:15 S 13 16.09 Clear   27 15     50%   27 1021.7        
Feb 20 13:55 S 15 16.09 Clear   27 15     49%   27 1021.7        
Feb 20 13:35 S 11 16.09 Clear   27 15     47%   27 1022        
Feb 20 13:15 S 13 16.09 Clear   27 15     48%   27 1022.4        
Feb 20 12:55 SSE 17 16.09 Clear   27 15     47%   27 1022.7        
Feb 20 12:35 S 21 16.09 Clear   27 15     47%   27 1022.7        
Feb 20 12:15 SSE 9 16.09 Clear   26 16     52%   26 1023        
Feb 20 11:55 SE 17 16.09 Clear   26 16     53%   26 1023.4        
Feb 20 11:35 SE 18 16.09 Clear   26 16     54%   26 1023.7        
Feb 20 11:15 SSE 13 11.27 Clear   25 16     57%   25 1024.1        
Feb 20 10:55 SE 18 16.09 Clear   26 16     56%   26 1024.1        
Feb 20 10:35 SE 15 16.09 Clear   25 16     58%   26 1024.4        
Feb 20 10:15 SSE 11 16.09 Clear   24 16     62%   24 1024.4        
Feb 20 09:55 SSE 15 16.09 Clear   23 16     63%   24 1024.7        
Feb 20 09:35 SSE 21 16.09 Clear   23 16     64%   23 1024.7        
Feb 20 09:15 SE 15 16.09 Clear   22 16     67%   22 1024.7        
Feb 20 08:55 SE 17 16.09 Clear   21 16     71%   22 1024.7        
Feb 20 08:35 SE 9 16.09 Clear   20 16     79%     1024.7        
Feb 20 08:15 SE 8 16.09 Clear   19 16     83%     1024.4        
Feb 20 07:55 ESE 11 16.09 Clear   19 16     84%     1024.4        
Feb 20 07:35 SE 11 16.09 Clear   18 16     89%     1024.1        
Feb 20 07:15 ESE 11 11.27 Clear   17 16     91%     1023.7        
Feb 20 06:55 ESE 15 16.09 Clear   18 16     90%     1023.7        
Feb 20 06:35 SE 11 16.09 Clear   18 16     90%     1023.7        
Feb 20 06:15 SE 9 16.09 Clear   17 16     90%     1023.4        
Feb 20 05:55 ESE 11 16.09 Clear   17 16     89%     1023.4        
Feb 20 05:35 ESE 13 16.09 Clear   17 15     90%     1023.4        
Feb 20 05:15 ESE 8 16.09 Clear   17 15     91%     1023.4        
Feb 20 04:55 ESE 5 16.09 Clear   17 15     93%     1023.4        
Feb 20 04:35 ESE 5 16.09 Clear   16 15     91%     1023        
Feb 20 04:15 ESE 8 16.09 Clear   16 15     92%     1023        
Feb 20 03:55 ESE 9 16.09 Clear   16 15     91%     1022.7        
Feb 20 03:35 ESE 8 16.09 Clear   17 15     89%     1023        
Feb 20 03:15 ESE 8 16.09 Clear   17 15     91%     1023        
Feb 20 02:55 ESE 5 16.09 Clear   16 15     91%     1023        
Feb 20 02:35 SE 5 16.09 Clear   17 15     90%     1023        
Feb 20 02:15 SE 8 16.09 Clear   16 15     91%     1023.4        
Feb 20 01:55 SE 5 16.09 Clear   16 15     91%     1023.4        
Feb 20 01:35 SE 5 16.09 Clear   15 14     93%     1023.4        
Feb 20 01:15 SE 5 16.09 Clear   16 14     93%     1023.4        
Feb 20 00:55 Calm 16.09 Clear   16 14     88%     1023.4        
Feb 20 00:35 Calm 16.09 Clear   17 15     85%     1023.4        
Feb 20 00:15 Calm 16.09 Clear   18 15     83%     1023.4        
Feb 19 23:55 Calm 16.09 Clear   18 15     82%     1023        
Feb 19 23:35 SE 8 16.09 Clear   19 15     80%     1023        
Feb 19 23:15 SE 8 16.09 Clear   19 15     80%     1022.7        
Feb 19 22:55 SE 8 16.09 Clear   19 15     79%     1022.7        
Feb 19 22:35 SE 5 16.09 Clear   17 14     82%     1022.7        
Feb 19 22:15 SSE 5 16.09 Clear   19 15     77%     1023        
Feb 19 21:55 SSE 5 16.09 Clear   20 15     72%     1022.7        
Feb 19 21:35 SSE 11 16.09 Clear   21 15     70%     1022.7        
Feb 19 21:15 SE 8 16.09 Clear   20 15     71%     1022.7        
Feb 19 20:55 SE 11 16.09 Clear   21 15     69%     1022.4        
Feb 19 20:35 SE 13 16.09 Clear   21 15     67%   21 1022        
Feb 19 20:15 SE 13 16.09 Clear   22 15     66%   22 1022        
Feb 19 19:55 SE 9 16.09 Clear   21 15     66%   21 1021.7        
Feb 19 19:35 SE 8 16.09 Clear   21 14     64%   21 1021.7        
Feb 19 19:15 SSE 9 11.27 Clear   22 14     62%   22 1021.7        
Feb 19 18:55 SSE 11 16.09 Clear   22 14     62%   22 1021.3        
Feb 19 18:35 SE 8 11.27 Clear   22 14     62%   22 1021.3        
Feb 19 18:15 SSE 9 16.09 Clear   23 14     59%   23 1021.3        
Feb 19 17:55 SSE 9 16.09 Clear   24 14     56%   24 1021        
Feb 19 17:35 SE 15 16.09 Clear   25 14     50%   25 1020.7        
Feb 19 17:15 SSE 15 11.27 Clear   26 13     46%   26 1020.7        
Feb 19 16:55 SSE 15 16.09 Clear   26 13     44%   26 1020.7        
Feb 19 16:35 SSE 21 16.09 Clear   27 13     43%   26 1020.7        
Feb 19 16:15 SSE 15 16.09 Clear   27 13     43%   27 1020.3        
Feb 19 15:55 SSE 22 16.09 Clear   27 13     43%   27 1020.3        
Feb 19 15:35 SSE 18 16.09 Clear   28 13     41%   27 1020.3        
Feb 19 15:15 S 11 16.09 Clear   27 13     42%   27 1020.3        
Feb 19 14:55 SSE 26 16.09 Clear   27 13     42%   27 1020.7        
Feb 19 14:35 S 22 16.09 Clear   27 14     44%   27 1020.7        
Feb 19 14:15 SSE 24 16.09 Clear   27 14     44%   27 1020.7        
Feb 19 13:55 SSE 18 16.09 Clear   27 14     46%   27 1020.7        
Feb 19 13:35 S 18 16.09 Clear   26 14     47%   26 1021        
Feb 19 13:15 S 17 16.09 Clear   25 14     50%   25 1021        
Feb 19 12:55 SSE 15 16.09 Clear   25 15     52%   25 1021.7        
Feb 19 12:35 SE 22 11.27 Clear   26 14     49%   26 1021.7        
Feb 19 12:15 SSE 24 16.09 Clear   25 14     50%   25 1022.4        
Feb 19 11:55 SSE 18 16.09 Clear   25 14     53%   25 1022.7        
Feb 19 11:35 SSE 13 16.09 Clear   24 15     58%   24 1023        
Feb 19 11:15 SSE 22 16.09 Clear   24 16     60%   24 1023.4        
Feb 19 10:55 SE 9 16.09 Clear   23 17     67%   23 1023.4        
Feb 19 10:35 SSE 15 16.09 Clear   23 17     68%   23 1023.7        
Feb 19 10:15 SE 11 16.09 Clear   22 17     74%   22 1024.1        
Feb 19 09:55 ESE 18 16.09 Clear   21 17     81%     1024.1        
Feb 19 09:35 ESE 9 16.09 Clear   19 18     96%     1024.1        
Notice The following observation data may not be complete
Feb 19 09:15 SSE 8 11.27 Clear            %     1024.4        
Notice The following observation data may not be complete
Feb 19 08:55 SSE 9 3.22 Fog/Mist            %     1024.4        
Notice The following observation data may not be complete
Feb 19 08:35 SSE 11 2.41 Fog/Mist            %     1024.1        
Notice The following observation data may not be complete
Feb 19 08:15 SE 9 1.21 Fog/Mist            %     1024.1        
Notice The following observation data may not be complete
Feb 19 07:55 SE 9 1.21 Fog/Mist            %     1024.1        
Notice The following observation data may not be complete
Feb 19 07:35 SE 9 1.21 Fog/Mist            %     1023.7        
Notice The following observation data may not be complete
Feb 19 07:15 ESE 5 2.82 Fog/Mist            %     1023.4        
Notice The following observation data may not be complete
Feb 19 06:55 ESE 5 8.05 Haze            %     1023.4        
Notice The following observation data may not be complete
Feb 19 06:35 Calm 11.27 Clear            %     1023.4        
Jun 11 23:15 SE 8 16.09 Clear   24 24     100%   25 1019.3        
Notice The following observation data may not be complete
Jun 11 20:35   16.09 Clear            %              
Jun 11 20:15 N 5 16.09 Clear   23 23     100%   25 1018        
Notice The following observation data may not be complete
Jun 11 19:35   16.09 Clear            %              
Jun 11 13:55 S 5 16.09 Clear   32 18     44%   33 1019        
Notice The following observation data may not be complete
Jun 11 05:15   16.09 Clear            %              
Jun 11 02:15 Calm 16.09 Clear   19 19     99%     1017.3        
Jun 11 00:35 Calm 16.09 Clear   20 19     96%     1017.6        
Jun 10 22:15 Calm 16.09 Clear   21 19     87%   22 1017.6        
Notice The following observation data may not be complete
Jun 10 20:35 Calm 16.09 Clear     19      %     1016.3        
Jun 10 17:55 SE 9 16.09 Clear   31 16     40%   31 1015.6        
Notice The following observation data may not be complete
Jun 10 15:15   16.09 Clear            %              
Jun 10 12:35 SSE 13 16.09 Clear   29 16     44%   29 1018        
Notice The following observation data may not be complete
Jun 10 11:15   16.09 Clear            %              
Jun 10 07:35 Calm 16.09 Clear   20 18     93%     1016.9        
Notice The following observation data may not be complete
Jun 10 03:55 Calm 16.09 Clear            %     1015.2        
Jun 09 22:35 Calm 16.09 Clear   18 18     98%     1014.9        
Jun 08 06:55 Calm 16.09 Clear   16 15     93%     1012.9        
Notice The following observation data may not be complete
Jun 08 06:35   16.09 Clear            %              
Notice The following observation data may not be complete
Jun 07 18:35   16.09 Clear            %              
Jun 07 14:55 N 17 16.09 Clear   28 15     43%   28 1009.2        
Notice The following observation data may not be complete
Jun 07 10:15   16.09 Clear            %              
Jun 06 14:35 NE 17 16.09 Clear   24 20     77%   25 1007.1        
Jun 06 13:35 NW 9 16.09 Clear   27 21     70%   30 1006.8        
Jun 06 10:15 NNW 8 16.09 Clear   25 23     88%   26 1008.1        
Jun 06 09:55 N 5 16.09 Clear   24 23     92%   25 1008.1        
Jun 05 16:35 WSW 5 16.09 Clear   26 21     78%   26 1007.5